K4GZX-11 Weather Reports


time (UTC)temp
F
wind
direction
speed
knots
gust
knots
rain 1hr
in
rain 24hr
in
rain mn
in
humidity
%
barometer
mb
20260506012352 73 172 0.0 0.0 0.00 0.00 0.00 48 1013.5
20260506011856 73 172 0.0 0.0 0.00 0.00 0.00 47 1013.7
20260506011404 73 172 0.0 0.0 0.00 0.00 0.00 47 1013.7
20260506010852 73 172 0.0 0.0 0.00 0.00 0.00 47 1013.6
20260506010352 73 172 0.0 0.0 0.00 0.00 0.00 47 1013.6
20260506005852 74 172 0.0 0.0 0.00 0.00 0.00 46 1013.6
20260506005352 74 172 0.0 0.0 0.00 0.00 0.00 46 1013.7
20260506004852 74 172 0.0 0.0 0.00 0.00 0.00 46 1013.7
20260506004352 74 172 0.0 0.0 0.00 0.00 0.00 45 1013.6
20260506003852 75 172 0.0 0.0 0.00 0.00 0.00 45 1013.6
20260506003352 75 172 0.0 0.0 0.00 0.00 0.00 45 1013.6
20260506002852 75 172 0.0 0.0 0.00 0.00 0.00 43 1013.6
20260506002352 76 172 0.0 0.0 0.00 0.00 0.00 43 1013.7
20260506001852 76 172 0.0 0.0 0.00 0.00 0.00 43 1013.7
20260506001352 76 172 0.0 0.0 0.00 0.00 0.00 42 1013.7
20260506000852 76 172 0.0 0.0 0.00 0.00 0.00 42 1013.6
20260506000354 76 172 0.0 0.0 0.00 0.00 0.00 41 1013.5
20260505235852 77 172 0.0 0.0 0.00 0.00 0.00 41 1013.5
20260505235352 77 172 0.0 0.0 0.00 0.00 0.00 40 1013.5
20260505234856 77 172 0.0 0.0 0.00 0.00 0.00 41 1013.5
20260505234404 77 172 0.0 0.0 0.00 0.00 0.00 40 1013.4
20260505233852 77 172 0.0 0.0 0.00 0.00 0.00 40 1013.4
20260505233356 78 172 0.0 0.0 0.00 0.00 0.00 40 1013.4
20260505232904 78 172 0.0 0.0 0.00 0.00 0.00 39 1013.4
20260505232352 78 172 0.0 0.0 0.00 0.00 0.00 39 1013.5
20260505231852 78 172 0.0 0.0 0.00 0.00 0.00 39 1013.4
20260505231352 78 172 0.0 0.0 0.00 0.00 0.00 39 1013.3
20260505230856 78 172 0.0 0.0 0.00 0.00 0.00 39 1013.3
20260505230404 79 172 0.0 0.0 0.00 0.00 0.00 39 1013.2
20260505225852 79 172 0.0 0.0 0.00 0.00 0.00 39 1013.1
20260505225351 79 172 0.0 0.0 0.00 0.00 0.00 39 1013.2
20260505224856 79 172 0.0 0.0 0.00 0.00 0.00 38 1013.3
20260505224404 79 172 0.0 0.0 0.00 0.00 0.00 38 1013.2
20260505223856 79 172 0.0 0.0 0.00 0.00 0.00 38 1013.2
20260505223404 79 172 0.0 0.0 0.00 0.00 0.00 38 1013.4
20260505222852 80 172 0.0 1.7 0.00 0.00 0.00 39 1013.5
20260505222352 80 172 0.0 2.6 0.00 0.00 0.00 38 1013.4
20260505221852 80 172 0.0 2.6 0.00 0.00 0.00 38 1013.4
20260505221352 80 172 0.0 0.9 0.00 0.00 0.00 38 1013.3
20260505220856 80 172 0.0 3.5 0.00 0.00 0.00 37 1013.4
20260505220404 80 172 0.0 3.5 0.00 0.00 0.00 36 1013.2
20260505215852 81 172 0.0 0.0 0.00 0.00 0.00 36 1013.2
20260505215352 81 172 0.0 1.7 0.00 0.00 0.00 36 1013.3
20260505214852 81 172 0.0 1.7 0.00 0.00 0.00 36 1013.6
20260505214357 81 172 0.0 0.0 0.00 0.00 0.00 36 1013.5
20260505213852 81 172 0.0 0.0 0.00 0.00 0.00 35 1013.5
20260505213351 82 172 0.0 0.0 0.00 0.00 0.00 34 1013.5
20260505212852 82 172 0.0 0.9 0.00 0.00 0.00 34 1013.5
20260505212351 82 172 0.0 0.9 0.00 0.00 0.00 33 1013.4
20260505211852 83 172 0.0 0.0 0.00 0.00 0.00 34 1013.5
20260505211352 83 172 0.0 0.0 0.00 0.00 0.00 34 1013.6
20260505210856 83 172 0.0 0.0 0.00 0.00 0.00 33 1013.6
20260505210404 83 172 0.0 0.0 0.00 0.00 0.00 33 1013.5
20260505205852 83 172 0.0 0.0 0.00 0.00 0.00 33 1013.6
20260505205351 83 172 0.0 1.7 0.00 0.00 0.00 32 1013.6
20260505204852 83 172 0.0 1.7 0.00 0.00 0.00 32 1013.7
20260505204352 84 172 0.0 0.0 0.00 0.00 0.00 32 1013.7
20260505203854 84 172 0.0 0.0 0.00 0.00 0.00 32 1013.7
20260505203401 84 172 0.0 0.0 0.00 0.00 0.00 32 1013.8
20260505202909 84 172 0.0 0.9 0.00 0.00 0.00 32 1013.7
20260505202416 85 172 0.0 0.9 0.00 0.00 0.00 30 1013.8
20260505201852 85 172 0.0 0.9 0.00 0.00 0.00 29 1013.8
20260505201352 85 172 0.0 0.9 0.00 0.00 0.00 31 1013.9
20260505200852 86 172 0.0 0.9 0.00 0.00 0.00 30 1013.9
20260505200352 86 172 0.0 0.9 0.00 0.00 0.00 30 1014.0
20260505195852 86 172 0.0 0.9 0.00 0.00 0.00 31 1014.1
20260505195352 87 172 0.0 0.9 0.00 0.00 0.00 32 1014.2
20260505194858 87 172 0.0 0.9 0.00 0.00 0.00 30 1014.3
20260505194405 88 172 0.0 0.0 0.00 0.00 0.00 28 1014.5
20260505193913 88 172 0.0 0.9 0.00 0.00 0.00 28 1014.6
20260505193420 89 172 0.0 4.3 0.00 0.00 0.00 28 1014.7
20260505192916 89 172 0.0 4.3 0.00 0.00 0.00 29 1014.8
20260505192352 89 172 0.0 0.9 0.00 0.00 0.00 28 1014.7
20260505191856 90 172 0.0 0.9 0.00 0.00 0.00 27 1014.7
20260505191404 90 172 0.0 0.9 0.00 0.00 0.00 27 1014.8
20260505190852 90 172 0.0 0.0 0.00 0.00 0.00 26 1014.9
20260505190352 89 172 0.0 0.0 0.00 0.00 0.00 27 1015.0
20260505185856 89 172 0.0 0.0 0.00 0.00 0.00 28 1015.1
20260505185404 89 172 0.0 0.9 0.00 0.00 0.00 27 1015.3
20260505184857 88 172 0.0 1.7 0.00 0.00 0.00 27 1015.4
20260505184404 88 172 0.0 1.7 0.00 0.00 0.00 27 1015.3
20260505183852 88 172 0.0 0.0 0.00 0.00 0.00 28 1015.4
20260505183352 88 172 0.0 0.0 0.00 0.00 0.00 26 1015.4
20260505182852 88 172 0.0 0.0 0.00 0.00 0.00 29 1015.4
20260505182352 88 172 0.0 0.0 0.00 0.00 0.00 28 1015.4
20260505181819 88 172 0.0 0.0 0.00 0.00 0.00 28 1015.5
20260505181323 88 172 0.0 0.0 0.00 0.00 0.00 28 1015.6
20260505180831 88 172 0.0 1.7 0.00 0.00 0.00 27 1015.6
20260505180319 88 172 0.0 3.5 0.00 0.00 0.00 30 1015.6
20260505175819 88 172 0.0 3.5 0.00 0.00 0.00 30 1015.7
20260505175319 88 172 0.0 0.9 0.00 0.00 0.00 29 1015.7
20260505174819 87 172 0.0 0.0 0.00 0.00 0.00 30 1015.9
20260505174319 87 172 0.0 0.0 0.00 0.00 0.00 29 1015.9
20260505173819 87 172 0.0 0.0 0.00 0.00 0.00 29 1016.0
20260505173319 87 172 0.0 0.0 0.00 0.00 0.00 31 1016.1
20260505172819 87 172 0.0 0.0 0.00 0.00 0.00 30 1016.1
20260505172028 86 172 0.0 0.0 0.00 0.00 0.00 32 1016.1
20260505171516 86 172 0.0 0.0 0.00 0.00 0.00 31 1016.2
20260505171021 85 172 0.0 0.0 0.00 0.00 0.00 31 1016.3
20260505170528 85 172 0.0 0.0 0.00 0.00 0.00 29 1016.3
20260505170016 85 172 0.0 0.0 0.00 0.00 0.00 30 1016.4
20260505165516 85 172 0.0 0.0 0.00 0.00 0.00 29 1016.4
20260505165016 85 172 0.0 0.0 0.00 0.00 0.00 31 1016.4
20260505164516 85 172 0.0 0.0 0.00 0.00 0.00 31 1016.4
20260505164016 84 172 0.0 0.0 0.00 0.00 0.00 32 1016.5
20260505163516 84 172 0.0 0.0 0.00 0.00 0.00 34 1016.4
20260505163016 83 172 0.0 0.0 0.00 0.00 0.00 32 1016.4
20260505162516 83 172 0.0 0.0 0.00 0.00 0.00 34 1016.5
20260505161859 82 172 0.0 0.0 0.00 0.00 0.00 38 1016.4
20260505161407 81 172 0.0 0.0 0.00 0.00 0.00 39 1016.6
20260505160914 80 172 0.0 0.0 0.00 0.00 0.00 39 1016.6
20260505160410 79 172 0.0 0.0 0.00 0.00 0.00 42 1016.6
20260505152858 73 172 0.0 0.0 0.00 0.00 0.00 54 1017.0
20260505152405 72 172 0.0 0.0 0.00 0.00 0.00 59 1017.0
20260505151853 71 172 0.0 0.0 0.00 0.00 0.00 60 1016.9
20260505151353 70 172 0.0 0.0 0.00 0.00 0.00 63 1016.9
20260505150858 70 172 0.0 0.0 0.00 0.00 0.00 65 1016.9
20260505150405 69 172 0.0 0.0 0.00 0.00 0.00 65 1016.9
20260505140422 0 0.0 0.0 0.00 0.00 0.00 1017.0
20260505124853 52 172 0.0 0.0 0.00 0.00 0.00 85 1016.5
20260505124353 51 172 0.0 0.0 0.00 0.00 0.00 85 1016.5
20260505123853 51 172 0.0 0.0 0.00 0.00 0.00 85 1016.4
20260505123353 0 0.0 0.0 0.00 0.00 0.00 1016.6
20260505122853 0 0.0 0.0 0.00 0.00 0.00 1016.5
20260505122353 0 0.0 0.0 0.00 0.00 0.00 1016.6
20260505121853 0 0.0 0.0 0.00 0.00 0.00 1016.4
20260505121358 0 0.0 0.0 0.00 0.00 0.00 1016.5
20260505120905 0 0.0 0.0 0.00 0.00 0.00 1016.4
20260505120353 0 0.0 0.0 0.00 0.00 0.00 1016.3
20260505115858 0 0.0 0.0 0.00 0.00 0.00 1016.2
20260505115405 0 0.0 0.0 0.00 0.00 0.00 1016.2
20260505114853 0 0.0 0.0 0.00 0.00 0.00 1016.2
20260505114355 0 0.0 0.0 0.00 0.00 0.00 1016.2
20260505113902 0 0.0 0.0 0.00 0.00 0.00 1016.1
20260505113410 0 0.0 0.0 0.00 0.00 0.00 1016.1
20260505112917 0 0.0 0.0 0.00 0.00 0.00 1016.1
20260505112353 0 0.0 0.0 0.00 0.00 0.00 1015.9
20260505111858 0 0.0 0.0 0.00 0.00 0.00 1015.8
20260505111405 0 0.0 0.0 0.00 0.00 0.00 1015.8
20260505110913 0 0.0 0.0 0.00 0.00 0.00 1015.6
20260505110420 0 0.0 0.0 0.00 0.00 0.00 1015.6
20260505102029 0 0.0 0.0 0.00 0.00 0.00 1015.6
20260505101536 0 0.0 0.0 0.00 0.00 0.00 1015.5
20260505101044 0 0.0 0.0 0.00 0.00 0.00 1015.6
20260505100551 0 0.0 0.0 0.00 0.00 0.00 1015.5
20260505100059 0 0.0 0.0 0.00 0.00 0.00 1015.4
20260505095554 0 0.0 0.0 0.00 0.00 0.00 1015.5
20260505095102 0 0.0 0.0 0.00 0.00 0.00 1015.5
20260505094557 0 0.0 0.0 0.00 0.00 0.00 1015.6
20260505094105 0 0.0 0.0 0.00 0.00 0.00 1015.5
20260505093612 0 0.0 0.0 0.00 0.00 0.00 1015.6
20260505093119 0 0.0 0.0 0.00 0.00 0.00 1015.6
20260505092627 0 0.0 0.0 0.00 0.00 0.00 1015.6
20260505092134 0 0.0 0.0 0.00 0.00 0.00 1015.6
20260505091642 0 0.0 0.0 0.00 0.00 0.00 1015.6
20260505091149 0 0.0 0.0 0.00 0.00 0.00 1015.7
20260505090657 0 0.0 0.0 0.00 0.00 0.00 1015.7
20260505090204 0 0.0 0.0 0.00 0.00 0.00 1015.7
20260505085711 0 0.0 0.0 0.00 0.00 0.00 1015.7
20260505085219 0 0.0 0.0 0.00 0.00 0.00 1015.7
20260505084353 0 0.0 0.0 0.00 0.00 0.00 1015.7
20260505083857 0 0.0 0.0 0.00 0.00 0.00 1015.6
20260505083405 0 0.0 0.0 0.00 0.00 0.00 1015.6
20260505082858 0 0.0 0.0 0.00 0.00 0.00 1015.5
20260505082405 0 0.0 0.0 0.00 0.00 0.00 1015.5
20260505081853 0 0.0 0.0 0.00 0.00 0.00 1015.4
20260505081353 0 0.0 0.0 0.00 0.00 0.00 1015.4
20260505080853 0 0.0 0.0 0.00 0.00 0.00 1015.4
20260505080353 0 0.0 0.0 0.00 0.00 0.00 1015.4
20260505075853 0 0.0 0.0 0.00 0.00 0.00 1015.4
20260505075353 0 0.0 0.0 0.00 0.00 0.00 1015.5
20260505074853 0 0.0 0.0 0.00 0.00 0.00 1015.5
20260505074353 0 0.0 0.0 0.00 0.00 0.00 1015.4
20260505073853 0 0.0 0.0 0.00 0.00 0.00 1015.4
20260505073358 0 0.0 0.0 0.00 0.00 0.00 1015.3
20260505072905 0 0.0 0.0 0.00 0.00 0.00 1015.3
20260505072353 0 0.0 0.0 0.00 0.00 0.00 1015.4
20260505071853 0 0.0 0.0 0.00 0.00 0.00 1015.6
20260505071353 0 0.0 0.0 0.00 0.00 0.00 1015.4
20260505070853 0 0.0 0.0 0.00 0.00 0.00 1015.5
20260505070357 0 0.0 0.0 0.00 0.00 0.00 1015.2
20260505065905 0 0.0 0.0 0.00 0.00 0.00 1015.1
20260505065354 0 0.0 0.0 0.00 0.00 0.00 1015.1
20260505064902 0 0.0 0.0 0.00 0.00 0.00 1015.1
20260505064409 0 0.0 0.0 0.00 0.00 0.00 1015.2
20260505063917 0 0.0 0.0 0.00 0.00 0.00 1015.2
20260505063353 0 0.0 0.0 0.00 0.00 0.00 1015.2
20260505062853 0 0.0 0.0 0.00 0.00 0.00 1015.2
20260505062358 0 0.0 0.0 0.00 0.00 0.00 1015.3
20260505061905 0 0.0 0.0 0.00 0.00 0.00 1015.3
20260505061352 0 0.0 0.0 0.00 0.00 0.00 1015.3
20260505060853 0 0.0 0.0 0.00 0.00 0.00 1015.3
20260505060353 0 0.0 0.0 0.00 0.00 0.00 1015.3
20260505055853 0 0.0 0.0 0.00 0.00 0.00 1015.3
20260505055353 0 0.0 0.0 0.00 0.00 0.00 1015.3
20260505054853 0 0.0 0.0 0.00 0.00 0.00 1015.4
20260505054354 0 0.0 0.0 0.00 0.00 0.00 1015.3
20260505053902 0 0.0 0.0 0.00 0.00 0.00 1015.4
20260505053409 0 0.0 0.0 0.00 0.00 0.00 1015.4
20260505052905 0 0.0 0.0 0.00 0.00 0.00 1015.4
20260505052353 0 0.0 0.0 0.00 0.00 0.00 1015.3
20260505051853 0 0.0 0.0 0.00 0.00 0.00 1015.3
20260505051353 0 0.0 0.0 0.00 0.00 0.00 1015.4
20260505050853 0 0.0 0.0 0.00 0.00 0.00 1015.4
20260505050353 0 0.0 0.0 0.00 0.00 0.00 1015.4
20260505041353 0 0.0 0.0 0.00 0.00 0.00 1015.4
20260505040853 0 0.0 0.0 0.00 0.00 0.00 1015.4
20260505040353 0 0.0 0.0 0.00 0.00 0.00 1015.4
20260505035857 0 0.0 0.0 0.00 0.00 0.00 1015.5
20260505035405 0 0.0 0.0 0.00 0.00 0.00 1015.6
20260505034855 0 0.0 0.0 0.00 0.00 0.00 1015.6
20260505034402 0 0.0 0.0 0.00 0.00 0.00 1015.6
20260505033910 0 0.0 0.0 0.00 0.00 0.00 1015.6
20260505033417 0 0.0 0.0 0.00 0.00 0.00 1015.6
20260505032925 0 0.0 0.0 0.00 0.00 0.00 1015.6
20260505032408 0 0.0 0.0 0.00 0.00 0.00 1015.7
20260505031915 0 0.0 0.0 0.00 0.00 0.00 1015.6
20260505031411 0 0.0 0.0 0.00 0.00 0.00 1015.6
20260505030918 0 0.0 0.0 0.00 0.00 0.00 1015.6
20260505030426 0 0.0 0.0 0.00 0.00 0.00 1015.6
20260505025921 0 0.0 0.0 0.00 0.00 0.00 1015.6
20260505025404 0 0.0 0.0 0.00 0.00 0.00 1015.5
20260505024854 0 0.0 0.0 0.00 0.00 0.00 1015.6
20260505024402 0 0.0 0.0 0.00 0.00 0.00 1015.6
20260505023909 0 0.0 0.0 0.00 0.00 0.00 1015.6
20260505023405 0 0.0 0.0 0.00 0.00 0.00 1015.6
20260505022857 0 0.0 0.0 0.00 0.00 0.00 1015.6
20260505022404 0 0.0 0.0 0.00 0.00 0.00 1015.6
20260505021857 0 0.0 0.0 0.00 0.00 0.00 1015.6
20260505021404 0 0.0 0.0 0.00 0.00 0.00 1015.5
20260505020853 0 0.0 0.0 0.00 0.00 0.00 1015.5
20260505020353 0 0.0 0.0 0.00 0.00 0.00 1015.5
20260505015853 0 0.0 0.0 0.00 0.00 0.00 1015.3
20260505015353 0 0.0 0.0 0.00 0.00 0.00 1015.3
20260505014857 0 0.0 0.0 0.00 0.00 0.00 1015.3
20260505014405 0 0.0 0.0 0.00 0.00 0.00 1015.2
20260505013858 0 0.0 0.0 0.00 0.00 0.00 1015.2
20260505013406 0 0.0 0.0 0.00 0.00 0.00 1015.1
20260505012913 0 0.0 0.0 0.00 0.00 0.00 1015.0